,�O�C���x,�����t���O,�O�C���x,�����t���O,�󒲎����x,�����t���O,�󒲎����x,�����t���O,��󒲎����x,�����t���O,����,�����t���O
2004/5/1 0:00,20,0,67,0,24.4,0,55,0,22.3,0,19.4,0
2004/5/1 0:30,19.9,0,67,0,24.4,0,54.1,0,22.3,0,19.4,0
2004/5/1 1:00,19.8,0,69,0,24.3,0,53.8,0,22.3,0,19.5,0
2004/5/1 1:30,19.7,0,68,0,24.3,0,53.8,0,22.4,0,19.5,0
2004/5/1 2:00,19.5,0,68,0,24.3,0,53.6,0,22.4,0,19.5,0
2004/5/1 2:30,19.6,0,68,0,24.3,0,54.7,0,22.4,0,19.6,0
2004/5/1 3:00,19.6,0,69,0,24.3,0,54.4,0,22.4,0,19.6,0
2004/5/1 3:30,19.5,0,69,0,24.2,0,54.1,0,22.5,0,19.6,0
2004/5/1 4:00,19.2,0,71,0,24.2,0,53.9,0,22.5,0,19.6,0
2004/5/1 4:30,19.2,0,73,0,24.1,0,53.9,0,22.6,0,19.7,0
2004/5/1 5:00,19.1,0,74,0,24.1,0,53.8,0,22.6,0,19.7,0
2004/5/1 5:30,19.3,0,73,0,24.1,0,53.8,0,22.7,0,19.7,0
2004/5/1 6:00,19.1,0,73,0,24.1,0,53.8,0,22.7,0,19.8,0
2004/5/1 6:30,19.1,0,73,0,24.1,0,53.7,0,22.7,0,19.8,0
2004/5/1 7:00,18.9,0,73,0,24.1,0,53.6,0,22.8,0,19.8,0
2004/5/1 7:30,18.9,0,74,0,24.1,0,53.6,0,22.8,0,19.8,0
2004/5/1 8:00,18.4,0,76,0,24.1,0,53.5,0,22.8,0,19.7,0
2004/5/1 8:30,18.4,0,83,0,24.1,0,53.5,0,22.7,0,19.7,0
2004/5/1 9:00,18.1,0,86,0,24.1,0,53.6,0,22.7,0,19.7,0
2004/5/1 9:30,18.1,0,86,0,24.2,0,53.8,0,22.7,0,19.8,0
2004/5/1 10:00,17.9,0,86,0,24.2,0,54,0,22.7,0,19.8,0
2004/5/1 10:30,17.8,0,84,0,24.2,0,54.1,0,22.6,0,19.8,0
2004/5/1 11:00,18.1,0,82,0,24.2,0,54.2,0,22.6,0,19.8,0
2004/5/1 11:30,18.6,0,79,0,24.2,0,54.2,0,22.6,0,19.9,0
2004/5/1 12:00,18.7,0,78,0,24.2,0,54.4,0,22.6,0,19.9,0
2004/5/1 12:30,18.8,0,77,0,24.1,0,54.5,0,22.5,0,19.9,0
2004/5/1 13:00,18.5,0,79,0,24.1,0,54.6,0,22.5,0,19.9,0
2004/5/1 13:30,18.3,0,81,0,24.1,0,54.5,0,22.5,0,20,0
2004/5/1 14:00,18.2,0,82,0,24.1,0,54.6,0,22.5,0,20,0
2004/5/1 14:30,18.1,0,82,0,24.1,0,54.7,0,22.5,0,20,0
2004/5/1 15:00,18.6,0,81,0,24.1,0,54.7,0,22.5,0,20.1,0
2004/5/1 15:30,19,0,79,0,24.1,0,54.8,0,22.5,0,20.1,0
2004/5/1 16:00,19.3,0,76,0,24.2,0,54.8,0,22.5,0,20.1,0
2004/5/1 16:30,19.1,0,77,0,24.2,0,54.8,0,22.5,0,20.2,0
2004/5/1 17:00,19,0,77,0,24.2,0,54.9,0,22.4,0,20.2,0
2004/5/1 17:30,19.2,0,77,0,24.2,0,54.9,0,22.4,0,20.2,0
2004/5/1 18:00,19.3,0,76,0,24.2,0,55,0,22.4,0,20.2,0
2004/5/1 18:30,19.6,0,75,0,24.2,0,55,0,22.4,0,20.3,0
2004/5/1 19:00,19.7,0,74,0,24.2,0,55,0,22.4,0,20.3,0
2004/5/1 19:30,19.9,0,72,0,24.2,0,55.1,0,22.4,0,20.3,0
2004/5/1 20:00,19.9,0,72,0,24.2,0,55.3,0,22.4,0,20,0
2004/5/1 20:30,20.1,0,72,0,24.3,0,55.6,0,22.4,0,20.1,0
2004/5/1 21:00,20.1,0,73,0,24.3,0,55.4,0,22.4,0,20.1,0
2004/5/1 21:30,19.8,0,74,0,24.4,0,55.7,0,22.4,0,20.1,0
2004/5/1 22:00,19.7,0,76,0,24.6,0,56.2,0,22.4,0,20.1,0
2004/5/1 22:30,20.2,0,73,0,24.7,0,56.3,0,22.4,0,20.1,0
2004/5/1 23:00,19.2,0,77,0,24.6,0,54.8,0,22.5,0,20.2,0
2004/5/1 23:30,19.3,0,77,0,24.5,0,54.8,0,22.5,0,20.2,0
2004/5/2 0:00,19.1,0,78,0,24.5,0,55,0,22.5,0,20.2,0
2004/5/2 0:30,19.2,0,77,0,24.5,0,55.1,0,22.5,0,20.3,0
2004/5/2 1:00,19.4,0,75,0,24.5,0,55.1,0,22.6,0,20.3,0
2004/5/2 1:30,19.1,0,75,0,24.5,0,55.2,0,22.6,0,20.3,0
2004/5/2 2:00,19,0,79,0,24.4,0,55.1,0,22.6,0,20.3,0
2004/5/2 2:30,19.3,0,77,0,24.4,0,55.1,0,22.6,0,20.4,0
2004/5/2 3:00,19.6,0,75,0,24.4,0,55.1,0,22.6,0,20.4,0
2004/5/2 3:30,19.5,0,75,0,24.4,0,55.1,0,22.6,0,20.4,0
2004/5/2 4:00,19,0,76,0,24.4,0,55.1,0,22.7,0,20.4,0
2004/5/2 4:30,19,0,77,0,24.4,0,55.1,0,22.7,0,20.5,0
2004/5/2 5:00,19,0,77,0,24.4,0,55,0,22.7,0,20.1,0
2004/5/2 5:30,19.1,0,75,0,24.5,0,54.8,0,22.7,0,20.1,0
2004/5/2 6:00,19.2,0,76,0,24.5,0,54.8,0,22.7,0,20.2,0
2004/5/2 6:30,18.8,0,76,0,24.6,0,55.1,0,22.7,0,19.4,0
2004/5/2 7:00,19,0,75,0,24.5,0,55,0,22.7,0,19.5,0
2004/5/2 7:30,18.9,0,74,0,24.4,0,55.1,0,22.7,0,19.3,0
2004/5/2 8:00,18.8,0,75,0,24.4,0,55.3,0,22.7,0,19.4,0
2004/5/2 8:30,18.8,0,74,0,24.4,0,55.3,0,22.7,0,19.4,0
2004/5/2 9:00,18.8,0,74,0,24.4,0,55.4,0,22.6,0,19.4,0
2004/5/2 9:30,19,0,73,0,24.3,0,55.4,0,22.6,0,19.4,0
2004/5/2 10:00,18.9,0,74,0,24.3,0,55.4,0,22.6,0,19.5,0
2004/5/2 10:30,18.6,0,73,0,24.3,0,55.4,0,22.6,0,19.5,0
2004/5/2 11:00,18.5,0,72,0,24.3,0,55.4,0,22.6,0,19.5,0
2004/5/2 11:30,18.6,0,71,0,24.3,0,55.4,0,22.6,0,19.6,0
2004/5/2 12:00,18.6,0,73,0,24.2,0,55.4,0,22.6,0,19.6,0
2004/5/2 12:30,18.7,0,73,0,24.2,0,55.4,0,22.6,0,19.6,0
2004/5/2 13:00,18.4,0,75,0,24.2,0,55.4,0,22.6,0,19.7,0
2004/5/2 13:30,18.2,0,75,0,24.2,0,55.5,0,22.6,0,19.7,0
2004/5/2 14:00,18.3,0,75,0,24.2,0,55.5,0,22.6,0,19.7,0
2004/5/2 14:30,18.2,0,76,0,24.1,0,55.6,0,22.6,0,19.8,0
2004/5/2 15:00,18.3,0,77,0,24.2,0,55.7,0,22.5,0,19.4,0
2004/5/2 15:30,18.6,0,76,0,24.2,0,55.9,0,22.6,0,19.5,0
2004/5/2 16:00,18.6,0,74,0,24.3,0,56,0,22.5,0,19.5,0
2004/5/2 16:30,18.7,0,75,0,24.3,0,55.9,0,22.5,0,19.5,0
2004/5/2 17:00,18.5,0,76,0,24.3,0,55.3,0,22.5,0,19.5,0
2004/5/2 17:30,18.5,0,77,0,24.2,0,55,0,22.6,0,19.6,0
2004/5/2 18:00,18.7,0,75,0,24.4,0,55.6,0,22.6,0,19.6,0
2004/5/2 18:30,18.7,0,76,0,24.4,0,55.5,0,22.5,0,19.6,0
2004/5/2 19:00,18.7,0,76,0,24.5,0,56.6,0,22.5,0,19.7,0
2004/5/2 19:30,18.6,0,76,0,24.4,0,56.9,0,22.5,0,19.7,0
2004/5/2 20:00,18.7,0,76,0,24.4,0,57.1,0,22.5,0,19.7,0
2004/5/2 20:30,18.6,0,76,0,24.4,0,57,0,22.5,0,19.7,0
2004/5/2 21:00,18.4,0,77,0,24.4,0,56.9,0,22.5,0,19.8,0
2004/5/2 21:30,18.3,0,78,0,24.4,0,56.6,0,22.5,0,19.8,0
2004/5/2 22:00,18.4,0,79,0,24.4,0,56.5,0,22.5,0,19.8,0
2004/5/2 22:30,18.2,0,79,0,24.4,0,56.8,0,22.5,0,19.8,0
2004/5/2 23:00,18.1,0,79,0,24.4,0,56.9,0,22.5,0,19.9,0
2004/5/2 23:30,18.2,0,79,0,24.4,0,56.9,0,22.5,0,19.9,0
2004/5/2 0:00,18.3,0,79,0,24.4,0,56.9,0,22.5,0,19.9,0
2004/5/2 0:30,18.3,0,79,0,24.4,0,57,0,22.5,0,20,0
2004/5/2 1:00,18.5,0,77,0,24.4,0,57,0,22.5,0,20,0
2004/5/2 1:30,18.5,0,77,0,24.3,0,55.8,0,22.5,0,20,0
2004/5/2 2:00,18.3,0,77,0,24.3,0,55.3,0,22.5,0,20.1,0
2004/5/2 2:30,18.2,0,78,0,24.3,0,55.3,0,22.5,0,20.1,0
2004/5/2 3:00,18.4,0,80,0,24.3,0,55.4,0,22.5,0,20.1,0
2004/5/2 3:30,18.5,0,80,0,24.3,0,55.5,0,22.5,0,20.2,0
2004/5/2 4:00,18.3,0,80,0,24.3,0,55.2,0,22.5,0,20.2,0
2004/5/2 4:30,18.3,0,81,0,24.3,0,55.2,0,22.6,0,19.9,0
2004/5/2 5:00,18.3,0,81,0,24.3,0,55.2,0,22.6,0,20,0
2004/5/2 5:30,18.4,0,80,0,24.3,0,55,0,22.6,0,20,0
2004/5/2 6:00,18.3,0,80,0,24.2,0,55.3,0,22.6,0,20,0
2004/5/2 6:30,18.3,0,81,0,24.3,0,55.4,0,22.6,0,20,0
2004/5/2 7:00,18.2,0,80,0,24.3,0,55.5,0,22.6,0,20.1,0
2004/5/2 7:30,18.2,0,79,0,24.3,0,55.6,0,22.5,0,20.1,0
2004/5/2 8:00,18.2,0,79,0,24.3,0,55.6,0,22.5,0,20.1,0
2004/5/2 8:30,18.3,0,79,0,24.3,0,55.6,0,22.5,0,20.1,0
2004/5/2 9:00,18.3,0,78,0,24.3,0,55.7,0,22.5,0,20.2,0
2004/5/2 9:30,18.3,0,78,0,24.3,0,55.7,0,22.5,0,20.2,0
2004/5/2 10:00,18.4,0,77,0,24.3,0,55.7,0,22.5,0,20.2,0
2004/5/2 10:30,18.5,0,77,0,24.3,0,55.8,0,22.5,0,20.3,0
2004/5/2 11:00,18.4,0,77,0,24.3,0,55.8,0,22.4,0,20.3,0
2004/5/2 11:30,18.5,0,78,0,24.3,0,55.8,0,22.4,0,20.3,0
2004/5/2 12:00,18.6,0,77,0,24.3,0,55.8,0,22.4,0,20.3,0
2004/5/2 12:30,18.6,0,76,0,24.3,0,55.8,0,22.4,0,20.4,0
2004/5/2 13:00,18.7,0,76,0,24.3,0,55.8,0,22.4,0,20.4,0
2004/5/2 13:30,18.8,0,76,0,24.3,0,55.9,0,22.4,0,20.4,0
2004/5/2 14:00,18.8,0,76,0,24.3,0,55.9,0,22.4,0,20.4,0
2004/5/2 14:30,19,0,75,0,24.3,0,55.9,0,22.4,0,20.5,0
2004/5/2 15:00,19,0,76,0,24.3,0,55.9,0,22.4,0,20.5,0
2004/5/2 15:30,19.1,0,75,0,24.3,0,56,0,22.4,0,20.5,0
2004/5/2 16:00,19.3,0,74,0,24.3,0,56,0,22.4,0,20.5,0
2004/5/2 16:30,19.6,0,72,0,24.3,0,56,0,22.4,0,20.6,0
2004/5/2 17:00,19.9,0,70,0,24.2,0,56.1,0,22.3,0,20.6,0
2004/5/2 17:30,20,0,69,0,24.2,0,56.2,0,22.4,0,20.6,0
2004/5/2 18:00,20,0,68,0,24.3,0,56.2,0,22.4,0,20.6,0
2004/5/2 18:30,20,0,69,0,24.3,0,56.2,0,22.4,0,20.7,0
2004/5/2 19:00,20.1,0,69,0,24.3,0,56.2,0,22.3,0,20.7,0
2004/5/2 19:30,20.1,0,71,0,24.3,0,56.2,0,22.4,0,20.7,0
2004/5/2 20:00,20,0,69,0,24.3,0,56.2,0,22.4,0,20.7,0
2004/5/2 20:30,20.1,0,68,0,24.3,0,56.2,0,22.4,0,20.8,0
2004/5/2 21:00,20.2,0,65,0,24.3,0,56.2,0,22.4,0,20.8,0
2004/5/2 21:30,20.5,0,62,0,24.3,0,56.2,0,22.4,0,20.8,0
2004/5/2 22:00,20.9,0,54,0,24.3,0,56.2,0,22.4,0,20.8,0
2004/5/2 22:30,21.5,0,52,0,24.3,0,56.1,0,22.4,0,20.4,0
2004/5/2 23:00,22,0,49,0,24.3,0,56.2,0,22.4,0,20.4,0
2004/5/2 23:30,22.2,0,48,0,24.2,0,55.6,0,22.4,0,20.4,0
2004/5/3 0:00,22.2,0,45,0,24.3,0,55.8,0,22.5,0,20.4,0
2004/5/3 0:30,22.2,0,46,0,24.3,0,55.9,0,22.5,0,20.5,0
2004/5/3 1:00,22.2,0,47,0,24.3,0,56,0,22.5,0,20.5,0
2004/5/3 1:30,21.8,0,50,0,24.3,0,56.1,0,22.5,0,20.5,0
2004/5/3 2:00,21.5,0,52,0,24.2,0,52,0,22.5,0,20.5,0
2004/5/3 2:30,21.5,0,55,0,24.4,0,53.2,0,22.5,0,20.6,0
2004/5/3 3:00,21.6,0,55,0,24.5,0,54.1,0,22.5,0,20.6,0
2004/5/3 3:30,21.7,0,55,0,24.6,0,54.7,0,22.5,0,20.6,0
2004/5/3 4:00,21.6,0,57,0,24.7,0,58.5,0,22.5,0,20.6,0
2004/5/3 4:30,21.7,0,57,0,24.6,0,57.7,0,22.5,0,20.6,0
2004/5/3 5:00,21.9,0,57,0,24.5,0,56.3,0,22.6,0,20.7,0
2004/5/3 5:30,22.2,0,54,0,24.5,0,56,0,22.6,0,20.7,0
2004/5/3 6:00,22.3,0,54,0,24.5,0,55.8,0,22.6,0,20.7,0
2004/5/3 6:30,22.5,0,54,0,24.5,0,55.7,0,22.7,0,20.7,0
2004/5/3 7:00,22.6,0,54,0,24.5,0,56,0,22.7,0,20.8,0
2004/5/3 7:30,22.6,0,55,0,24.6,0,56.1,0,22.7,0,20.3,0
2004/5/3 8:00,22.5,0,57,0,24.4,0,55.8,0,22.7,0,20.3,0
2004/5/3 8:30,22.5,0,60,0,24.4,0,55.9,0,22.7,0,20.3,0
2004/5/3 9:00,22.2,0,63,0,24.4,0,56.3,0,22.7,0,20.3,0
2004/5/3 9:30,22.2,0,62,0,24.4,0,56.5,0,22.8,0,20.4,0
2004/5/3 10:00,22.1,0,64,0,24.4,0,56.8,0,22.8,0,20.4,0
2004/5/3 10:30,22,0,64,0,24.4,0,56.6,0,22.8,0,20.4,0
2004/5/3 11:00,22.1,0,62,0,24.4,0,56.5,0,22.8,0,20.4,0
2004/5/3 11:30,22.1,0,61,0,24.3,0,56.7,0,22.8,0,20.5,0
2004/5/3 12:00,23.1,0,57,0,24.1,0,57.5,0,22.9,0,20.5,0
2004/5/3 12:30,23.6,0,55,0,24.1,0,57.5,0,22.9,0,20.5,0
2004/5/3 13:00,23.2,0,57,0,24,0,57.9,0,22.9,0,20.6,0
2004/5/3 13:30,22.6,0,59,0,23.9,0,58.5,0,23,0,20.6,0
2004/5/3 14:00,22.3,0,61,0,24.3,0,58.1,0,23,0,20.1,0
2004/5/3 14:30,22.2,0,62,0,24.4,0,58.5,0,23,0,20.1,0
2004/5/3 15:00,22.1,0,62,0,24.4,0,58.6,0,22.9,0,20.1,0
2004/5/3 15:30,22.2,0,61,0,24.5,0,58.6,0,22.9,0,20.2,0
2004/5/3 16:00,22.2,0,61,0,24.5,0,58.7,0,22.9,0,20.2,0
2004/5/3 16:30,22.2,0,62,0,24.5,0,58.3,0,22.9,0,20.2,0
2004/5/3 17:00,22,0,67,0,24.4,0,58.5,0,22.9,0,20.3,0
2004/5/3 17:30,21.7,0,70,0,24.5,0,58.7,0,22.9,0,20.3,0
2004/5/3 18:00,21.5,0,71,0,24.5,0,59.1,0,23,0,19.5,0
2004/5/3 18:30,21.5,0,70,0,24.5,0,59.6,0,23,0,19.5,0
2004/5/3 19:00,21.6,0,70,0,24.6,0,60.3,0,23.1,0,19.5,0
2004/5/3 19:30,21.7,0,69,0,24.8,0,60.7,0,23.1,0,19.6,0
2004/5/3 20:00,21.6,0,69,0,24.8,0,60.9,0,23.2,0,19.6,0
2004/5/3 20:30,21.6,0,68,0,24.7,0,61.3,0,23.2,0,19.6,0
2004/5/3 21:00,21.7,0,67,0,24.7,0,61.4,0,23.2,0,19.7,0
2004/5/3 21:30,21.7,0,67,0,24.7,0,61.2,0,23.3,0,19.7,0
2004/5/3 22:00,21.7,0,66,0,24.7,0,60.4,0,23.3,0,19.7,0
2004/5/3 22:30,21.7,0,68,0,24.8,0,61.7,0,23.3,0,19.8,0
2004/5/3 23:00,21.6,0,68,0,24.8,0,62.3,0,23.4,0,19.8,0
2004/5/3 23:30,21.5,0,70,0,24.7,0,62,0,23.4,0,19.8,0
2004/5/3 0:00,21.3,0,71,0,24.7,0,62.8,0,23.4,0,19.9,0
2004/5/3 0:30,21.3,0,71,0,25.1,0,64.8,0,23.4,0,19.9,0
2004/5/3 1:00,21.4,0,70,0,25,0,64.5,0,23.4,0,19.9,0
2004/5/3 1:30,21.3,0,69,0,25.1,0,69.2,0,23.4,0,20,0
2004/5/3 2:00,21.3,0,70,0,25,0,66.2,0,23.3,0,20,0
2004/5/3 2:30,21.3,0,69,0,24.8,0,64.6,0,23.3,0,20.1,0
2004/5/3 3:00,21.2,0,71,0,24.8,0,64.1,0,23.3,0,20.1,0
2004/5/3 3:30,21.1,0,71,0,24.7,0,63.7,0,23.3,0,20.1,0
2004/5/3 4:00,21.2,0,70,0,24.7,0,63.4,0,23.3,0,20.2,0
2004/5/3 4:30,21.2,0,70,0,24.6,0,63.1,0,23.3,0,20.2,0
2004/5/3 5:00,21.1,0,69,0,24.6,0,63,0,23.3,0,20.3,0
2004/5/3 5:30,21.1,0,69,0,24.7,0,62.6,0,23.3,0,20,0
2004/5/3 6:00,21,0,69,0,24.7,0,62.5,0,23.2,0,20,0
2004/5/3 6:30,20.9,0,70,0,24.7,0,62.3,0,23.2,0,20,0
2004/5/3 7:00,20.8,0,72,0,24.7,0,62.1,0,23.2,0,20.1,0
2004/5/3 7:30,20.7,0,72,0,24.7,0,61.9,0,23.2,0,20.1,0
2004/5/3 8:00,20.6,0,73,0,24.7,0,61.7,0,23.2,0,20.2,0
2004/5/3 8:30,20.7,0,71,0,24.7,0,61.6,0,23.2,0,20.2,0
2004/5/3 9:00,20.7,0,71,0,24.7,0,61.4,0,23.2,0,20.2,0
2004/5/3 9:30,20.5,0,72,0,24.7,0,61.3,0,23.2,0,20.3,0
2004/5/3 10:00,20.6,0,72,0,24.7,0,61.1,0,23.2,0,20.3,0
2004/5/3 10:30,20.7,0,72,0,24.7,0,61,0,23.2,0,20.4,0
2004/5/3 11:00,20.7,0,71,0,24.7,0,61,0,23.2,0,20.4,0
2004/5/3 11:30,20.8,0,71,0,24.7,0,60.9,0,23.2,0,20.4,0
2004/5/3 12:00,20.7,0,73,0,24.7,0,60.8,0,23.2,0,20.5,0
2004/5/3 12:30,20.7,0,73,0,24.7,0,60.7,0,23.2,0,20.5,0
2004/5/3 13:00,20.6,0,75,0,24.7,0,60.7,0,23.2,0,20.5,0
2004/5/3 13:30,20.4,0,77,0,24.7,0,60.7,0,23.2,0,20.6,0
2004/5/3 14:00,20.5,0,77,0,24.7,0,60.7,0,23.2,0,20.6,0
2004/5/3 14:30,20.5,0,77,0,24.7,0,60.7,0,23.2,0,20.6,0
2004/5/3 15:00,20.7,0,76,0,24.7,0,60.6,0,23.2,0,20.7,0
2004/5/3 15:30,20.7,0,76,0,24.7,0,60.6,0,23.2,0,20.7,0
2004/5/3 16:00,20.9,0,76,0,24.7,0,61,0,23.2,0,21.1,0
2004/5/3 16:30,21.1,0,74,0,24.8,0,61.4,0,23.2,0,21.2,0
2004/5/3 17:00,21.5,0,72,0,24.9,0,61.6,0,23.2,0,21.2,0
2004/5/3 17:30,22,0,71,0,24.9,0,62.1,0,23.2,0,20.7,0
2004/5/3 18:00,22,0,70,0,24.9,0,61.3,0,23.2,0,20.7,0
2004/5/3 18:30,21.9,0,72,0,25.2,0,62.6,0,23.3,0,20.8,0
2004/5/3 19:00,21.6,0,75,0,25.3,0,62.9,0,23.3,0,20.8,0
2004/5/3 19:30,21.5,0,75,0,25.2,0,62.9,0,23.3,0,19.9,0
2004/5/3 20:00,21.3,0,76,0,25.3,0,63.2,0,23.3,0,20,0
2004/5/3 20:30,21.4,0,78,0,25.2,0,63.7,0,23.3,0,19.6,0
2004/5/3 21:00,21.6,0,78,0,25.3,0,65.3,0,23.3,0,19.6,0
2004/5/3 21:30,21.4,0,78,0,25.2,0,65.8,0,23.3,0,19.4,0
2004/5/3 22:00,21.2,0,81,0,25.2,0,65.3,0,23.3,0,19.2,0
2004/5/3 22:30,21,0,82,0,25.1,0,64.6,0,23.3,0,19,0
2004/5/3 23:00,21.1,0,82,0,25,0,64.4,0,23.4,0,19,0
2004/5/3 23:30,21.1,0,84,0,25,0,64.3,0,23.5,0,19.1,0
2004/5/4 0:00,21.2,0,85,0,24.9,0,64.2,0,23.5,0,19.1,0
2004/5/4 0:30,21.2,0,86,0,24.9,0,64.1,0,23.4,0,19.1,0
2004/5/4 1:00,21.2,0,86,0,24.8,0,64,0,23.4,0,19.2,0
2004/5/4 1:30,21.2,0,86,0,24.8,0,63.8,0,23.4,0,19.2,0
2004/5/4 2:00,21.1,0,87,0,24.8,0,63.7,0,23.4,0,19.3,0
2004/5/4 2:30,21,0,87,0,24.8,0,63.8,0,23.4,0,19.3,0
2004/5/4 3:00,21.2,0,87,0,24.8,0,63.6,0,23.4,0,19.4,0
2004/5/4 3:30,21.3,0,86,0,24.7,0,63.5,0,23.4,0,19.4,0
2004/5/4 4:00,21.3,0,86,0,24.7,0,63.5,0,23.4,0,19.4,0
2004/5/4 4:30,21.1,0,87,0,24.7,0,63.4,0,23.4,0,19.5,0
2004/5/4 5:00,21.1,0,88,0,24.7,0,63.3,0,23.4,0,19.5,0
2004/5/4 5:30,21.2,0,88,0,24.7,0,63.2,0,23.4,0,19.6,0
2004/5/4 6:00,21.1,0,89,0,24.7,0,63.1,0,23.4,0,19.6,0
2004/5/4 6:30,21.1,0,89,0,24.6,0,63.1,0,23.4,0,19.7,0
2004/5/4 7:00,21.1,0,90,0,24.7,0,63.8,0,23.4,0,20.5,0
2004/5/4 7:30,21.1,0,90,0,24.8,0,64,0,23.4,0,20.4,0
2004/5/4 8:00,21.2,0,90,0,24.8,0,63.9,0,23.4,0,20.4,0
2004/5/4 8:30,21.2,0,90,0,24.9,0,63.9,0,23.4,0,20.4,0
2004/5/4 9:00,21.2,0,90,0,25,0,64.2,0,23.4,0,20.2,0
2004/5/4 9:30,21.3,0,90,0,25,0,64.7,0,23.5,0,20.2,0
2004/5/4 10:00,21.4,0,90,0,25,0,64.6,0,23.5,0,20.2,0
2004/5/4 10:30,21.6,0,90,0,24.9,0,65.3,0,23.5,0,20.3,0
2004/5/4 11:00,21.9,0,88,0,25,0,65.4,0,23.5,0,20.3,0
2004/5/4 11:30,21.9,0,87,0,24.8,0,67.6,0,23.5,0,20.3,0
2004/5/4 12:00,22.1,0,87,0,24.9,0,68,0,23.6,0,20.7,0
2004/5/4 12:30,22.1,0,87,0,24.9,0,68.2,0,23.7,0,20.4,0
2004/5/4 13:00,22.3,0,86,0,25.1,0,68.8,0,23.7,0,19.9,0
2004/5/4 13:30,22.3,0,86,0,25.3,0,70.3,0,23.7,0,19.9,0
2004/5/4 14:00,22.3,0,87,0,25.4,0,71.3,0,23.7,0,19.9,0
2004/5/4 14:30,22.2,0,87,0,25.4,0,71.4,0,23.7,0,20,0
2004/5/4 15:00,22.4,0,86,0,25.3,0,69.1,0,23.7,0,20,0
2004/5/4 15:30,22.6,0,85,0,25.3,0,69,0,23.7,0,19.7,0
2004/5/4 16:00,22.5,0,85,0,25.5,0,69.7,0,23.7,0,19.7,0
2004/5/4 16:30,22.6,0,84,0,25.5,0,69.5,0,23.7,0,19.8,0
2004/5/4 17:00,22.6,0,84,0,25.4,0,69.4,0,23.7,0,19.8,0
2004/5/4 17:30,22.6,0,85,0,25.4,0,69.1,0,23.7,0,19.8,0
2004/5/4 18:00,22.6,0,86,0,25.3,0,70,0,23.7,0,19.4,0
2004/5/4 18:30,22.6,0,87,0,25.4,0,70.5,0,23.7,0,19.4,0
2004/5/4 19:00,22.5,0,89,0,25.4,0,71.1,0,23.8,0,19.5,0
2004/5/4 19:30,22.3,0,91,0,25.5,0,71.2,0,23.8,0,19.5,0
2004/5/4 20:00,22.2,0,92,0,25.5,0,70.6,0,23.8,0,19.6,0
2004/5/4 20:30,22.1,0,93,0,25.4,0,70.1,0,23.9,0,19.6,0
2004/5/4 21:00,21.8,0,95,0,25.6,0,73.6,0,23.9,0,19.7,0
2004/5/4 21:30,21.8,0,96,0,25.6,0,71.8,0,23.9,0,19.7,0
2004/5/4 22:00,21.8,0,97,0,25.7,0,71.9,0,23.9,0,19.7,0
2004/5/4 22:30,21.7,0,98,0,25.8,0,75,0,23.9,0,19.8,0
2004/5/4 23:00,21.8,0,98,0,25.8,0,75.7,0,23.9,0,19.8,0
2004/5/4 23:30,21.8,0,98,0,25.6,0,72.6,0,23.9,0,19.9,0
2004/5/4 0:00,21.8,0,99,0,25.7,0,72.7,0,24,0,19.9,0
2004/5/4 0:30,21.8,0,99,0,25.8,0,72.8,0,24,0,20,0
2004/5/4 1:00,21.8,0,99,0,25.7,0,71.9,0,23.9,0,20.2,0
2004/5/4 1:30,21.9,0,99,0,25.6,0,71.9,0,23.9,0,20.3,0
2004/5/4 2:00,21.9,0,99,0,25.5,0,71.9,0,23.9,0,20.3,0
2004/5/4 2:30,21.9,0,99,0,25.5,0,71.8,0,23.9,0,20.4,0
2004/5/4 3:00,21.9,0,99,0,25.4,0,71.6,0,23.9,0,20.4,0
2004/5/4 3:30,21.9,0,99,0,25.4,0,71.4,0,23.9,0,20.4,0
2004/5/4 4:00,22.1,0,99,0,25.4,0,71.3,0,23.9,0,20.5,0
2004/5/4 4:30,22.2,0,99,0,25.4,0,71.2,0,23.9,0,20.5,0
2004/5/4 5:00,22.3,0,98,0,25.3,0,71,0,23.9,0,20.6,0
2004/5/4 5:30,22.6,0,96,0,25.3,0,70.9,0,23.9,0,20.6,0
2004/5/4 6:00,22.7,0,94,0,25.3,0,70.8,0,23.9,0,20.7,0
2004/5/4 6:30,22.6,0,95,0,25.3,0,70.7,0,23.9,0,20.7,0
2004/5/4 7:00,21.9,0,96,0,25.3,0,70.6,0,23.9,0,20.8,0
2004/5/4 7:30,21.2,0,95,0,25.3,0,70.4,0,23.9,0,20.8,0
2004/5/4 8:00,20.4,0,95,0,25.3,0,70.3,0,23.9,0,20.8,0
2004/5/4 8:30,19.8,0,94,0,25.3,0,70,0,23.9,0,20.9,0
2004/5/4 9:00,19.3,0,94,0,25.2,0,69.7,0,23.9,0,20.9,0
2004/5/4 9:30,19.5,0,93,0,25.2,0,69.5,0,23.9,0,21,0
2004/5/4 10:00,19.5,0,91,0,25.2,0,69.2,0,23.9,0,21,0
2004/5/4 10:30,19.3,0,90,0,25.2,0,68.9,0,23.9,0,21,0
2004/5/4 11:00,19.2,0,89,0,25.2,0,68.7,0,23.8,0,21.1,0
2004/5/4 11:30,19.1,0,89,0,25.2,0,68.5,0,23.8,0,21.1,0
2004/5/4 12:00,19,0,89,0,25.2,0,68.3,0,23.8,0,21.2,0
2004/5/4 12:30,18.8,0,88,0,25.2,0,68.1,0,23.8,0,21.2,0
2004/5/4 13:00,18.6,0,86,0,25.2,0,67.9,0,23.8,0,21.4,0
2004/5/4 13:30,18.8,0,85,0,25.1,0,67.6,0,23.8,0,21.4,0
2004/5/4 14:00,18.8,0,85,0,25.1,0,67.4,0,23.8,0,21.4,0
2004/5/4 14:30,18.6,0,85,0,25.1,0,67.1,0,23.8,0,21.5,0
2004/5/4 15:00,18.5,0,83,0,25.1,0,66.9,0,23.7,0,21.5,0
2004/5/4 15:30,18.6,0,82,0,25.4,0,67.3,0,23.7,0,21.3,0
2004/5/4 16:00,18.7,0,80,0,25.5,0,67.6,0,23.8,0,20.7,0
2004/5/4 16:30,18.6,0,79,0,25.5,0,67,0,23.8,0,19.9,0
2004/5/4 17:00,18.3,0,79,0,25.5,0,67,0,23.8,0,20,0
2004/5/4 17:30,18.5,0,79,0,25.6,0,68.1,0,23.8,0,19.5,0
2004/5/4 18:00,18.1,0,79,0,25.6,0,67.9,0,23.7,0,19.6,0
2004/5/4 18:30,18,0,78,0,25.6,0,67.2,0,23.7,0,19.6,0
2004/5/4 19:00,18.1,0,77,0,25.5,0,66.8,0,23.7,0,19.2,0
2004/5/4 19:30,18.1,0,77,0,25.5,0,67,0,23.7,0,19.3,0
2004/5/4 20:00,18.3,0,74,0,25.5,0,66.2,0,23.7,0,19.3,0
2004/5/4 20:30,17.9,0,74,0,25.4,0,65.4,0,23.7,0,19.3,0
2004/5/4 21:00,17.6,0,74,0,25.5,0,65.8,0,23.7,0,19.4,0
2004/5/4 21:30,17.5,0,74,0,25.4,0,65.9,0,23.6,0,19.4,0
2004/5/4 22:00,17.3,0,74,0,25.4,0,65.3,0,23.6,0,19.5,0
2004/5/4 22:30,17.5,0,73,0,25.4,0,65.1,0,23.6,0,19.3,0
2004/5/4 23:00,16.8,0,74,0,25.2,0,63.9,0,23.6,0,19.3,0
2004/5/4 23:30,17.3,0,73,0,25.3,0,65.2,0,23.5,0,19.4,0
2004/5/5 0:00,17.5,0,70,0,25.4,0,65.1,0,23.5,0,19.4,0
2004/5/5 0:30,17.6,0,68,0,25.5,0,65.4,0,23.5,0,19.4,0
2004/5/5 1:00,17.7,0,68,0,25.5,0,65.2,0,23.5,0,19.6,0
2004/5/5 1:30,17.8,0,65,0,25.8,0,69.2,0,23.5,0,19.6,0
2004/5/5 2:00,17.7,0,64,0,25.8,0,68.9,0,23.5,0,19.6,0
2004/5/5 2:30,17.7,0,65,0,25.8,0,67.9,0,23.5,0,19.6,0
2004/5/5 3:00,17.6,0,63,0,25.7,0,67.4,0,23.5,0,19.6,0
2004/5/5 3:30,17.5,0,63,0,25.7,0,67,0,23.5,0,19.7,0
2004/5/5 4:00,17.4,0,61,0,25.6,0,63.6,0,23.5,0,19.6,0
2004/5/5 4:30,17.5,0,60,0,25.6,0,64.8,0,23.5,0,19.6,0
2004/5/5 5:00,17.6,0,59,0,25.7,0,65.2,0,23.5,0,19.7,0
2004/5/5 5:30,18.1,0,57,0,25.7,0,63.8,0,23.5,0,19.6,0
2004/5/5 6:00,18.3,0,61,0,25.5,0,62.2,0,23.5,0,19.6,0
2004/5/5 6:30,18.4,0,57,0,25.4,0,60.5,0,23.5,0,19.7,0
2004/5/5 7:00,18.5,0,56,0,25.4,0,60.2,0,23.5,0,19.8,0
2004/5/5 7:30,19,0,54,0,25.4,0,60.2,0,23.6,0,19.8,0
2004/5/5 8:00,18.6,0,56,0,25.4,0,60.1,0,23.6,0,19.8,0
2004/5/5 8:30,18.3,0,58,0,25.4,0,59.9,0,23.6,0,19.9,0
2004/5/5 9:00,18.3,0,56,0,25.4,0,59.4,0,23.6,0,19.8,0
2004/5/5 9:30,18.4,0,59,0,25.4,0,59.2,0,23.6,0,19.9,0
2004/5/5 10:00,19,0,58,0,25.3,0,58.7,0,23.6,0,19.9,0
2004/5/5 10:30,18.2,0,60,0,24.9,0,51.7,0,23.6,0,19.9,0
2004/5/5 11:00,18.3,0,59,0,24.9,0,49.7,0,23.4,0,19.9,0
2004/5/5 11:30,18.5,0,59,0,24.8,0,50.9,0,23.1,0,20,0
2004/5/5 12:00,18.6,0,58,0,25,0,53.2,0,23.1,0,20.1,0
2004/5/5 12:30,18.4,0,59,0,25.1,0,54.2,0,23.2,0,20.1,0
2004/5/5 13:00,18.2,0,60,0,24.9,0,52.3,0,23.1,0,19.7,0
2004/5/5 13:30,17.8,0,62,0,24.9,0,52.1,0,23,0,19.7,0
2004/5/5 14:00,17.7,0,65,0,24.9,0,51.4,0,23,0,19.7,0
2004/5/5 14:30,17.5,0,66,0,25,0,53.2,0,22.8,0,19,0
2004/5/5 15:00,17.5,0,66,0,24.9,0,53.5,0,22.7,0,18.9,0
2004/5/5 15:30,17.3,0,68,0,24.9,0,54.3,0,22.6,0,18.9,0
2004/5/5 16:00,17.4,0,69,0,25.1,0,55.2,0,22.5,0,19,0
2004/5/5 16:30,17.4,0,69,0,25.4,0,57.1,0,22.3,0,18.9,0
2004/5/5 17:00,17.6,0,70,0,25.4,0,56.8,0,22.3,0,18.9,0
2004/5/5 17:30,17.5,0,71,0,25.5,0,56.9,0,22.3,0,18.9,0
2004/5/5 18:00,17.7,0,70,0,25.4,0,56.8,0,22.2,0,19,0
2004/5/5 18:30,17.8,0,70,0,25.4,0,57.7,0,22.2,0,19,0
2004/5/5 19:00,17.9,0,69,0,25.4,0,58.4,0,22.2,0,19,0
2004/5/5 19:30,17.9,0,68,0,25.4,0,59.3,0,22.3,0,18.9,0
2004/5/5 20:00,18,0,68,0,25,0,56.2,0,22.3,0,18.9,0
2004/5/5 20:30,18.1,0,66,0,25.2,0,57.1,0,22.3,0,18.9,0
2004/5/5 21:00,18.1,0,68,0,25.3,0,58,0,22.4,0,19,0
2004/5/5 21:30,18.1,0,69,0,25.4,0,58.7,0,22.4,0,19,0
2004/5/5 22:00,18,0,69,0,25.4,0,59.2,0,22.4,0,19.1,0
2004/5/5 22:30,17.8,0,70,0,25.7,0,63,0,22.4,0,19.1,0
2004/5/5 23:00,17.8,0,70,0,25.9,0,65.5,0,22.5,0,19.1,0
2004/5/5 23:30,17.6,0,72,0,25.8,0,59.3,0,22.5,0,19.2,0
2004/5/5 0:00,17.2,0,74,0,25.4,0,58.5,0,22.5,0,19.3,0
2004/5/5 0:30,17.3,0,74,0,25.6,0,59,0,22.6,0,19.4,0
2004/5/5 1:00,17.5,0,74,0,25.5,0,57.8,0,22.6,0,19.4,0
2004/5/5 1:30,17.5,0,74,0,25.3,0,57.8,0,22.7,0,19.4,0
2004/5/5 2:00,17.2,0,76,0,25.3,0,57.8,0,22.8,0,19.5,0
2004/5/5 2:30,17.4,0,75,0,25.3,0,58.9,0,22.8,0,19.5,0
2004/5/5 3:00,17.3,0,75,0,25.5,0,60.2,0,22.9,0,19.5,0
2004/5/5 3:30,17.2,0,75,0,25.4,0,60,0,22.9,0,19.6,0
2004/5/5 4:00,17.1,0,76,0,25.4,0,59.8,0,22.9,0,19.6,0
2004/5/5 4:30,17.2,0,75,0,25.4,0,59.5,0,22.9,0,19.6,0
2004/5/5 5:00,17.1,0,74,0,25.3,0,59.3,0,22.9,0,19.7,0
2004/5/5 5:30,17,0,75,0,25.3,0,59.3,0,22.9,0,19.8,0
2004/5/5 6:00,17,0,74,0,25.3,0,59.3,0,22.9,0,19.8,0
2004/5/5 6:30,17.1,0,74,0,25.3,0,59.2,0,22.9,0,19.9,0
2004/5/5 7:00,16.8,0,74,0,25.2,0,59.3,0,22.9,0,19.9,0
2004/5/5 7:30,17,0,74,0,25.2,0,59.2,0,22.9,0,19.9,0
2004/5/5 8:00,16.9,0,74,0,25.2,0,59,0,22.9,0,20,0
2004/5/5 8:30,16.7,0,75,0,25.2,0,59,0,22.9,0,20,0
2004/5/5 9:00,16.7,0,75,0,25.2,0,58.9,0,22.9,0,20,0
2004/5/5 9:30,16.6,0,75,0,25.2,0,58.8,0,22.9,0,20.1,0
2004/5/5 10:00,16.5,0,75,0,25.1,0,58.8,0,22.9,0,20.1,0
2004/5/5 10:30,16.6,0,74,0,25.1,0,58.7,0,22.9,0,20.2,0
2004/5/5 11:00,16.5,0,75,0,25.1,0,58.6,0,22.9,0,20.2,0
2004/5/5 11:30,16.3,0,75,0,25.1,0,58.5,0,22.9,0,20.2,0
2004/5/5 12:00,16.2,0,75,0,25.1,0,58.4,0,22.9,0,20.3,0
2004/5/5 12:30,16.3,0,73,0,25.1,0,58.3,0,22.9,0,20.3,0
2004/5/5 13:00,16.5,0,71,0,25,0,58.3,0,22.9,0,20.3,0
2004/5/5 13:30,16.7,0,70,0,25.1,0,58.1,0,22.9,0,20.4,0
2004/5/5 14:00,16.9,0,71,0,25.1,0,58,0,22.9,0,20.4,0
2004/5/5 14:30,16.9,0,72,0,25,0,58.5,0,22.9,0,20.5,0
2004/5/5 15:00,17.2,0,70,0,25.1,0,59.5,0,22.9,0,20.5,0
2004/5/5 15:30,17.4,0,69,0,25,0,59.3,0,22.9,0,20.5,0
2004/5/5 16:00,17.5,0,67,0,25,0,59.3,0,22.9,0,20.6,0
2004/5/5 16:30,17.7,0,64,0,25,0,59.2,0,22.9,0,20.6,0
2004/5/5 17:00,17.7,0,61,0,25.1,0,59.5,0,22.9,0,20.3,0
2004/5/5 17:30,17.9,0,60,0,25.2,0,61.2,0,22.9,0,19.6,0
2004/5/5 18:00,18.2,0,59,0,25.4,0,62.8,0,22.9,0,19.3,0
2004/5/5 18:30,18.3,0,58,0,25.5,0,63.3,0,23,0,19.3,0
2004/5/5 19:00,18.3,0,59,0,25.5,0,63.4,0,23,0,19.1,0
2004/5/5 19:30,18.6,0,54,0,25.4,0,62.3,0,23,0,19,0
2004/5/5 20:00,18.6,0,57,0,25.4,0,62,0,23,0,19.1,0
2004/5/5 20:30,18.6,0,58,0,25.2,0,59.8,0,23.1,0,19.1,0
2004/5/5 21:00,18.7,0,57,0,25.1,0,56.8,0,23.1,0,19.1,0
2004/5/5 21:30,18.8,0,52,0,24.7,0,49.9,0,23,0,19.2,0
2004/5/5 22:00,18.8,0,50,0,24.6,0,49.2,0,22.8,0,19.2,0
2004/5/5 22:30,19,0,50,0,24.6,0,49.2,0,22.7,0,19.3,0
2004/5/5 23:00,19.3,0,49,0,24.7,0,49.4,0,22.5,0,19.3,0
2004/5/5 23:30,19.2,0,46,0,24.4,0,43,0,22.5,0,19.3,0
2004/5/6 0:00,19.4,0,43,0,24,0,41.5,0,22.3,0,19.4,0
2004/5/6 0:30,19.6,0,42,0,24.2,0,42.7,0,22.2,0,19.2,0
2004/5/6 1:00,20,0,34,0,24.5,0,44.3,0,22.5,0,19.2,0